DW8097 Weather Reports


time (UTC)temp
C
wind
direction
speed
KPH
gust
KPH
rain 1hr
cm
rain 24hr
cm
rain mn
cm
humidity
%
barometer
mb
20260901153059 27 46 0.0 3.2 0.00 0.00 0.00 68 1011.9
20260901151606 26 325 0.0 1.6 0.00 0.00 0.00 72 1012.1
20260901150056 24 318 0.0 3.2 0.00 0.00 0.00 76 1012.3
20260901144556 24 22 0.0 4.8 0.00 0.00 0.00 76 1012.2
20260901143109 23 345 0.0 0.0 0.00 0.00 0.00 78 1012.4
20260901141555 22 355 0.0 0.0 0.00 0.00 0.00 81 1012.3
20260901140104 22 11 1.6 6.4 0.00 0.00 0.00 84 1012.4
20260901134550 21 329 0.0 0.0 0.00 0.00 0.00 86 1012.4
20260901133047 20 322 0.0 0.0 0.00 0.00 0.00 87 1012.2
20260901131545 18 315 0.0 0.0 0.00 0.00 0.00 90 1012.0
20260901130044 18 229 0.0 0.0 0.00 0.00 0.00 89 1011.9
20260901124542 18 229 0.0 0.0 0.00 0.00 0.00 91 1011.9
20260901123042 18 253 0.0 0.0 0.00 0.00 0.00 92 1012.0
20260901121555 17 253 0.0 0.0 0.00 0.00 0.00 93 1011.8
20260901120037 16 253 0.0 0.0 0.00 0.00 0.00 93 1011.7
20260901114533 17 253 0.0 0.0 0.00 0.00 0.00 93 1011.4
20260901113032 17 253 0.0 0.0 0.00 0.00 0.00 92 1011.2
20260901111526 17 294 0.0 0.0 0.00 0.00 0.00 92 1011.3
20260901110032 17 247 0.0 0.0 0.00 0.00 0.00 92 1011.1
20260901104527 17 246 0.0 0.0 0.00 0.00 0.00 92 1011.1
20260901103026 17 246 0.0 0.0 0.00 0.00 0.00 92 1011.1
20260901101526 17 246 0.0 0.0 0.00 0.00 0.00 92 1010.9
20260901100019 17 224 0.0 0.0 0.00 0.00 0.00 92 1010.8
20260901094516 17 310 0.0 0.0 0.00 0.00 0.00 93 1010.8
20260901093015 17 243 0.0 0.0 0.00 0.00 0.00 92 1010.6
20260901091511 17 315 0.0 0.0 0.00 0.00 0.00 92 1010.8
20260901090013 17 315 0.0 0.0 0.00 0.00 0.00 93 1010.6
20260901084507 17 229 0.0 0.0 0.00 0.00 0.00 92 1010.5
20260901083007 18 229 0.0 0.0 0.00 0.00 0.00 92 1010.6
20260901081505 18 229 0.0 0.0 0.00 0.00 0.00 92 1010.5
20260901080005 18 249 0.0 0.0 0.00 0.00 0.00 91 1010.8
20260901074558 18 227 0.0 0.0 0.00 0.00 0.00 91 1010.8
20260901073058 18 227 0.0 0.0 0.00 0.00 0.00 91 1011.2
20260901071552 19 289 0.0 0.0 0.00 0.00 0.00 90 1011.1
20260901070056 19 348 0.0 0.0 0.00 0.00 0.00 91 1011.2
20260901064524 19 245 0.0 0.0 0.00 0.00 0.00 91 1010.9
20260901063026 19 244 0.0 0.0 0.00 0.00 0.00 90 1011.0
20260901061511 19 304 0.0 0.0 0.00 0.00 0.00 91 1010.8
20260901060007 19 223 0.0 0.0 0.00 0.00 0.00 91 1010.6
20260901054504 20 264 0.0 0.0 0.00 0.00 0.00 91 1010.5
20260901053000 20 235 0.0 0.0 0.00 0.00 0.00 90 1010.3
20260901051528 20 281 0.0 0.0 0.00 0.00 0.00 91 1010.2
20260901050025 20 308 0.0 0.0 0.00 0.00 0.00 89 1010.1
20260901044518 21 236 0.0 0.0 0.00 0.00 0.00 89 1010.1
20260901043023 21 268 0.0 0.0 0.00 0.00 0.00 90 1010.0
20260901041516 21 268 0.0 0.0 0.00 0.00 0.00 91 1010.2
20260901040016 21 248 0.0 0.0 0.00 0.00 0.00 91 1009.9
20260901034502 21 248 0.0 0.0 0.00 0.00 0.00 91 1009.8
20260901033057 22 248 0.0 0.0 0.00 0.00 0.00 90 1009.7
20260901031553 22 248 0.0 0.0 0.00 0.00 0.00 90 1009.7
20260901030053 23 255 0.0 0.0 0.00 0.00 0.00 90 1009.7
20260901024543 23 255 0.0 0.0 0.00 0.00 0.00 90 1009.4
20260901023039 23 254 0.0 0.0 0.00 0.00 0.00 90 1009.3
20260901021534 24 254 0.0 0.0 0.00 0.00 0.00 88 1009.2
20260901020029 25 254 0.0 0.0 0.00 0.00 0.00 88 1009.2
20260901014522 25 254 0.0 0.0 0.00 0.00 0.00 86 1009.1
20260901013020 26 316 0.0 0.0 0.00 0.00 0.00 85 1008.9
20260901011512 26 340 0.0 0.0 0.00 0.00 0.00 82 1008.7
20260901010011 27 334 0.0 0.0 0.00 0.00 0.00 82 1008.5
20260901004503 27 257 0.0 0.0 0.00 0.00 0.00 77 1008.4
20260901003055 28 229 0.0 0.0 0.00 0.00 0.00 76 1008.3
20260901001551 29 231 0.0 0.0 0.00 0.00 0.00 73 1008.3
20260901000049 30 271 0.0 0.0 0.00 0.00 0.00 72 1008.2
20260831234548 30 200 0.0 1.6 0.00 0.00 0.00 69 1008.3
20260831233017 31 242 0.0 4.8 0.00 0.00 0.00 67 1008.0
20260831231520 31 268 0.0 4.8 0.00 0.00 0.00 66 1008.1
20260831230016 32 157 0.0 8.0 0.00 0.00 0.00 61 1007.9
20260831224514 32 125 0.0 8.0 0.00 0.00 0.00 63 1007.9
20260831223013 32 93 0.0 8.0 0.00 0.00 0.00 62 1007.9
20260831221526 31 130 0.0 11.3 0.00 0.00 0.00 64 1007.8
20260831220010 33 111 1.6 8.0 0.00 0.00 0.00 60 1007.8
20260831214527 33 92 0.0 4.8 0.00 0.00 0.00 61 1007.7
20260831213007 33 116 0.0 8.0 0.00 0.00 0.00 60 1007.7
20260831211507 33 140 0.0 6.4 0.00 0.00 0.00 59 1007.5
20260831210005 33 205 0.0 9.7 0.00 0.00 0.00 59 1007.5
20260831204603 32 132 0.0 11.3 0.00 0.00 0.00 62 1007.5
20260831203058 32 71 0.0 3.2 0.00 0.00 0.00 62 1007.5
20260831201556 32 123 0.0 0.0 0.00 0.00 0.00 61 1007.6
20260831200052 32 159 0.0 8.0 0.00 0.00 0.00 65 1007.6
20260831194549 31 355 0.0 0.0 0.00 0.00 0.00 64 1007.5
20260831193045 30 111 0.0 0.0 0.00 0.00 0.00 65 1007.7
20260831191543 30 149 0.0 0.0 0.00 0.00 0.00 68 1007.7
20260831190100 30 97 0.0 0.0 0.00 0.00 0.00 67 1007.8
20260831184543 31 99 0.0 1.6 0.00 0.00 0.00 67 1007.9
20260831183049 30 138 0.0 0.0 0.00 0.00 0.00 67 1007.8
20260831181536 30 88 0.0 0.0 0.00 0.00 0.00 68 1007.8
20260831180002 29 205 0.0 0.0 0.00 0.00 0.00 68 1008.0
20260831174608 29 261 0.0 0.0 0.00 0.00 0.00 71 1007.9
20260831173058 28 271 0.0 6.4 0.00 0.00 0.00 72 1008.1
20260831171555 29 271 0.0 6.4 0.00 0.00 0.00 71 1008.2
20260831170052 29 355 0.0 0.0 0.00 0.00 0.00 70 1008.2
20260831164602 29 81 0.0 0.0 0.00 0.00 0.00 70 1008.1
20260831163046 29 107 0.0 0.0 0.00 0.00 0.00 69 1008.0
20260831161540 28 106 0.0 0.0 0.00 0.00 0.00 70 1007.8
20260831160043 29 122 0.0 0.0 0.00 0.00 0.00 68 1007.7
20260831154539 28 97 0.0 1.6 0.00 0.00 0.00 70 1007.5